Greybull, WY

12:07 PM MDT on April 25, 2017 (GMT -0600)
South Big Horn County

Weather History for KGEY - December, 2012

Change the Weather History Date:

Thursday, December 27, 2012

  Actual Average Record
Temperature  
Mean Temperature 11 °F 16 °F  
Max Temperature 21 °F 28 °F 43 °F (2005)
Min Temperature 1 °F 5 °F -13 °F (2016)
Degree Days  
Heating Degree Days 54 49  
Month to date heating degree days 1114 1271  
Since 1 July heating degree days 2726 3128  
Cooling Degree Days 0 0  
Month to date cooling degree days 0 0  
Year to date cooling degree days 977 669  
Moisture  
Dew Point 8 °F    
Average Humidity 84    
Maximum Humidity 95    
Minimum Humidity 73    
Precipitation  
Precipitation T in 0.01 in 0.17 in (1967)
Month to date precipitation 0.13 0.26  
Year to date precipitation 2.35 7.49  
Sea Level Pressure  
Sea Level Pressure 29.99 in    
Wind  
Wind Speed 2 mph (SE)    
Max Wind Speed 7 mph    
Max Gust Speed 23 mph    
Visibility 8 miles    
Events Snow    
T = Trace of Precipitation, MM = Missing Value Source: NWS Daily Summary

Daily Weather History Graph

Daily Weather History Graph

Search for Another Location

Airport or City:

Trip Planner

Search our weather history database for the weather conditions in past years. The results will help you decide how hot, cold, wet, or windy it might be!

Date:

Astronomy

Dec. 27, 2012 Rise Set
Actual Time 7:48 AM MST 4:39 PM MST
Civil Twilight 7:14 AM MST 5:12 PM MST
Nautical Twilight 6:37 AM MST 5:49 PM MST
Astronomical Twilight 6:02 AM MST 6:25 PM MST
Moon 4:26 PM MST (12/27) 7:00 AM MST (12/27)
Length of Visible Light 9h 57m
Length of Day
8h 51m
Full, 100% of the Moon is Illuminated
Dec 27
Full
Dec 28
Full
Jan 4
Last Quarter
Jan 11
New
Jan 18
First Quarter

Hourly Weather History & Observations

Time (MST) Temp. Windchill Dew Point Humidity Pressure Visibility Wind Dir Wind Speed Gust Speed Precip Events Conditions
12:33 AM 17.6 °F 9.3 °F 12.2 °F 79% 29.72 in 3.0 mi WNW 5.8 mph - 0.00 in Snow Light Snow
12:40 AM 15.8 °F 7.2 °F 12.2 °F 86% 29.72 in 2.5 mi WNW 5.8 mph - 0.00 in Snow Light Snow
12:53 AM 16.0 °F 7.4 °F 12.9 °F 88% 29.88 in 3.0 mi WNW 5.8 mph - 0.00 in Snow Light Snow
1:19 AM 15.8 °F 10.2 °F 12.2 °F 86% 29.73 in 2.0 mi WNW 3.5 mph - 0.00 in Snow Light Snow
1:53 AM 15.1 °F - 12.9 °F 91% 29.89 in 5.0 mi Calm Calm - 0.00 in   Overcast
2:53 AM 14.0 °F - 10.0 °F 84% 29.91 in 10.0 mi Calm Calm - N/A   Overcast
3:53 AM 12.9 °F - 10.0 °F 88% 29.92 in 9.0 mi Calm Calm - N/A   Mostly Cloudy
4:53 AM 12.0 °F - 10.0 °F 92% 29.93 in 10.0 mi Calm Calm - N/A   Partly Cloudy
5:53 AM 12.9 °F 6.9 °F 10.0 °F 88% 29.94 in 9.0 mi SE 3.5 mph - N/A   Overcast
6:53 AM 12.9 °F 5.2 °F 10.0 °F 88% 29.96 in 10.0 mi ESE 4.6 mph - N/A   Overcast
7:53 AM 12.9 °F - 10.0 °F 88% 29.98 in 10.0 mi Calm Calm - N/A   Overcast
8:53 AM 12.9 °F 6.9 °F 10.0 °F 88% 30.00 in 9.0 mi ESE 3.5 mph - N/A   Overcast
9:53 AM 15.1 °F - 12.0 °F 88% 30.02 in 10.0 mi Calm Calm - N/A   Overcast
10:53 AM 17.1 °F 11.7 °F 12.9 °F 84% 30.01 in 10.0 mi SE 3.5 mph - N/A   Overcast
11:53 AM 19.0 °F - 14.0 °F 81% 30.00 in 9.0 mi North - - N/A   Mostly Cloudy
12:53 PM 19.9 °F - 14.0 °F 78% 30.00 in 10.0 mi Calm Calm - N/A   Overcast
1:53 PM 19.9 °F 14.9 °F 12.9 °F 74% 30.00 in 10.0 mi SE 3.5 mph - N/A   Clear
2:53 PM 19.9 °F - 12.9 °F 74% 30.02 in 10.0 mi Calm Calm - N/A   Clear
3:53 PM 17.1 °F 10.0 °F 10.9 °F 77% 30.04 in 10.0 mi South 4.6 mph - N/A   Clear
4:53 PM 15.1 °F - 10.0 °F 80% 30.06 in 10.0 mi Calm Calm - N/A   Clear
5:53 PM 10.0 °F 1.8 °F 7.0 °F 87% 30.10 in 10.0 mi ESE 4.6 mph - N/A   Clear
6:53 PM 7.0 °F -3.3 °F 3.9 °F 87% 30.13 in 10.0 mi ESE 5.8 mph - N/A   Clear
7:53 PM 5.0 °F -4.1 °F 1.9 °F 87% 30.15 in 10.0 mi ESE 4.6 mph - N/A   Clear
8:53 PM 3.0 °F -4.4 °F -0.0 °F 87% 30.17 in 9.0 mi SSE 3.5 mph - N/A   Scattered Clouds
9:53 PM 1.0 °F - -2.0 °F 87% 30.17 in 9.0 mi Calm Calm - N/A   Mostly Cloudy
10:21 PM 1.4 °F - -2.2 °F 85% 29.96 in 10.0 mi Calm Calm - N/A   Overcast
10:33 PM 3.2 °F - -0.4 °F 85% 29.96 in 9.0 mi Calm Calm - N/A   Overcast
10:53 PM 1.9 °F - -0.9 °F 88% 30.18 in 7.0 mi Calm Calm - N/A   Overcast
11:23 PM 1.4 °F -6.2 °F -0.4 °F 92% 29.96 in 7.0 mi SSE 3.5 mph - N/A   Overcast
11:53 PM 3.0 °F - -0.0 °F 87% 30.17 in 8.0 mi Calm Calm - N/A   Overcast